Index of /watch_images/6549

[ICO]NameLast modifiedSizeDescription

[PARENTDIR]Parent Directory  -  
[IMG]65491869-business-man-handing-a-blank-businessft160_medium.jpg2016-10-07 15:17 123K 
[IMG]65491870-cutlery-set-with-fork-knife-and-spoonft160_medium.jpg2016-10-07 15:16 152K 
[IMG]65491871-drinks-production-plant-in-chinaft160_medium.jpg2016-10-07 15:14 201K 
[IMG]65491872-drinks-production-plant-in-chinaft160_medium.jpg2016-10-07 15:12 178K 
[IMG]65491874-paper-boxft160_medium.jpg2016-10-07 15:12 113K 
[IMG]65491878-drinks-production-plant-in-chinaft160_medium.jpg2016-10-07 15:13 209K 
[IMG]65491880ft160_medium.jpg2016-10-07 15:11 155K 
[IMG]65491891-details-of-the-machine-drinks-production-plant-in-chinaft160_medium.jpg2016-10-07 15:13 166K 
[IMG]65491894-drinks-production-plant-in-chinaft160_medium.jpg2016-10-07 15:13 199K 
[IMG]65491898-drinks-production-plant-in-chinaft160_medium.jpg2016-10-07 15:12 196K 
[IMG]65491902-drinks-production-plant-in-chinaft160_medium.jpg2016-10-07 15:10 193K 
[IMG]65491906ft160_medium.jpg2016-10-07 15:16 126K 
[IMG]65491907-drinks-production-plant-in-chinaft160_medium.jpg2016-10-07 15:15 228K 
[IMG]65491912-drinks-production-plant-in-chinaft160_medium.jpg2016-10-07 15:17 206K 
[IMG]65491919-drinks-production-plant-in-chinaft160_medium.jpg2016-10-07 15:16 218K 
[IMG]65491921-business-man-handing-a-blank-businessft160_medium.jpg2016-10-07 15:16 123K 
[IMG]65491928-drinks-production-plant-in-chinaft160_medium.jpg2016-10-07 15:17 197K 
[IMG]65491937-drinks-production-plant-in-chinaft160_medium.jpg2016-10-07 15:13 215K 
[IMG]65491941-drinks-production-plant-in-chinaft160_medium.jpg2016-10-07 15:12 208K 
[IMG]65491945-human-hand-holding-cityft160_medium.jpg2016-10-07 15:13 154K 
[IMG]65491946-two-aged-woman-with-cup-of-tea-discussing-somethingft160_medium.jpg2016-10-07 15:17 176K 
[IMG]65491967-human-hand-holding-cityft160_medium.jpg2016-10-07 15:13 144K 
[IMG]65491983-retro-tree-frame-infographic-modern-design-template-eps-10ft160_medium.jpg2016-10-07 15:14 163K 
[IMG]65491987-human-hand-holding-cityft160_medium.jpg2016-10-07 15:14 136K 
[IMG]65491988-mature-doctor-consulting-female-patientft160_medium.jpg2016-10-07 15:13 193K 
[IMG]65491991--patient-and-doctor-sitting-at-the-table-and-talkingft160_medium.jpg2016-10-07 15:16 196K 
[IMG]65491995-close-up-horizontal-view-of-new-asphalt-roadft160_medium.jpg2016-10-07 15:13 207K 
[IMG]65491999-positive-doctor-talking-with-his-patientft160_medium.jpg2016-10-07 15:16 181K 
[IMG]65492000-dark-chocolate-bar-in-silver-foilft160_medium.jpg2016-10-07 15:17 142K 
[IMG]65492002-rice-field-and-river-ninhbinh-vietnam-landscapesft160_medium.jpg2016-10-07 15:14 159K 
[IMG]65492005-football-event-poster-graphic-template-vector-background-ft160_medium.jpg2016-10-07 15:12 170K 
[IMG]65492015--colleagues-discussing-the-contents-of-the-documentsft160_medium.jpg2016-10-07 15:17 167K 
[IMG]65492022-two-sad-mature-women-looking-documentsft160_medium.jpg2016-10-07 15:14 195K 
[IMG]65492026-human-hand-holding-cityft160_medium.jpg2016-10-07 15:13 138K 
[IMG]65492030-isolated-metal-monk-statue-overwhite-backgroundft160_medium.jpg2016-10-07 15:17 142K 
[IMG]65492035-football-event-poster-graphic-template-vector-background-ft160_medium.jpg2016-10-07 15:14 195K 
[IMG]65492036-human-hand-holding-cityft160_medium.jpg2016-10-07 15:13 149K 
[IMG]65492038-poppyft160_medium.jpg2016-10-07 15:15 150K 
[IMG]65492041-the-english-red-telephone-boxft160_medium.jpg2016-10-07 15:10 162K 
[IMG]65492046-human-hand-holding-cityft160_medium.jpg2016-10-07 15:16 161K 
[IMG]65492047-technology-business-finance-backgroundft160_medium.jpg2016-10-07 15:11 115K 
[IMG]65492048-social-business-connection-backgroundft160_medium.jpg2016-10-07 15:10 121K 
[IMG]65492051-abstract-background-with-graphs-and-diagramsft160_medium.jpg2016-10-07 15:14 125K 
[IMG]65492053-human-hand-holding-cityft160_medium.jpg2016-10-07 15:11 156K 
[IMG]65492060-cutlery-set-with-fork-and-spoonft160_medium.jpg2016-10-07 15:12 141K 
[IMG]65492061-mago-giocoliereft160_medium.jpg2016-10-07 15:14 148K 
[IMG]65492063-human-hand-holding-cityft160_medium.jpg2016-10-07 15:10 147K 
[IMG]65492066-human-hand-holding-cityft160_medium.jpg2016-10-07 15:17 137K 
[IMG]65492067-hecatombeft160_medium.jpg2016-10-07 15:17 163K 
[IMG]65492072-human-hand-holding-cityft160_medium.jpg2016-10-07 15:16 153K 
[IMG]65492073-isolated-young-business-woman-hold-her-book-and-pen-overwhite-bft160_medium.jpg2016-10-07 15:14 134K 
[IMG]65492077-human-hand-holding-cityft160_medium.jpg2016-10-07 15:15 167K 
[IMG]65492084-carrot-on-a-wooden-tableft160_medium.jpg2016-10-07 15:10 177K 
[IMG]65492095-dark-chocolate-bar-brokenft160_medium.jpg2016-10-07 15:14 125K 
[IMG]65492100-lawyer-attorney-in-classic-polish-black-green-gown-and-scalesft160_medium.jpg2016-10-07 15:12 148K 
[IMG]65492102-grass-with-dew-dropsft160_medium.jpg2016-10-07 15:14 186K 
[IMG]65492106-young-woman-climbing-rock-ft160_medium.jpg2016-10-07 15:10 219K 
[IMG]65492110--touch-screen-interface-in-handft160_medium.jpg2016-10-07 15:13 143K 
[IMG]65492111-irish-landscape-coastline-atlantic-coast-county-cork-irelandft160_medium.jpg2016-10-07 15:15 159K 
[IMG]65492132-hairstylist-with-hairspray-and-female-client-blond-girl-in-salonft160_medium.jpg2016-10-07 15:17 157K 
[IMG]65492141-pot-with-cactus-and-other-plants-in-the-italian-gardenft160_medium.jpg2016-10-07 15:16 214K 
[IMG]65492149-closeup-of-female-face-girl-and-insertion-false-eyelashes-ft160_medium.jpg2016-10-07 15:17 137K 
[IMG]65492152-red-tiled-roof-on-a-hot-summer-day-florence-italyft160_medium.jpg2016-10-07 15:12 184K 
[IMG]65492156-red-tiled-roof-on-a-hot-summer-day-florence-italyft160_medium.jpg2016-10-07 15:17 180K 
[IMG]65492157-florence-on-a-hot-summer-day-italyft160_medium.jpg2016-10-07 15:14 189K 
[IMG]65492158-red-tiled-roof-on-a-hot-summer-day-florence-italyft160_medium.jpg2016-10-07 15:11 181K 
[IMG]65492165-attractive-girl-near-the-grotto-buontalenti-in-the-boboli-gardenft160_medium.jpg2016-10-07 15:16 191K 
[IMG]65492166-bust-of-benvenuto-cellini-on-the-ponte-vecchio-in-florence-italft160_medium.jpg2016-10-07 15:11 200K 
[IMG]65492170--financial-symbols-coming-from-handft160_medium.jpg2016-10-07 15:16 139K 
[IMG]65492192-pinup-girl-in-blond-wig-and-retro-red-dress-dancing-party-ft160_medium.jpg2016-10-07 15:13 164K 
[IMG]65492198-tired-college-student-with-books-studying-for-exams-isolatedft160_medium.jpg2016-10-07 15:16 151K 
[IMG]65492200--financial-symbols-coming-from-handft160_medium.jpg2016-10-07 15:13 138K 
[IMG]65492202-girl-and-her-aged-mother-having-financial-problemsft160_medium.jpg2016-10-07 15:12 184K 
[IMG]65492209-young-woman-climbing-rock-ft160_medium.jpg2016-10-07 15:15 220K 
[IMG]65492210-surprised-woman-face-girl-covering-her-mouth-over-whiteft160_medium.jpg2016-10-07 15:14 173K 
[IMG]65492213-sexy-woman-holding-candy-redhair-girl-eating-sweet-lollipopft160_medium.jpg2016-10-07 15:10 127K 
[IMG]65492217-beautiful-blonde-woman-retro-stylingft160_medium.jpg2016-10-07 15:16 145K 
[IMG]65492222-modern-style-woman-ballet-dancer-full-length-on-grayft160_medium.jpg2016-10-07 15:09 132K 
[IMG]65492223-red-boxft160_medium.jpg2016-10-07 15:14 107K 
[IMG]65492225-woman-plus-size-on-scale-celebrating-weightloss-thumb-upft160_medium.jpg2016-10-07 15:10 139K 
[IMG]65492226-family-having-financial-problemsft160_medium.jpg2016-10-07 15:16 184K 
[IMG]65492228-money-and-savings-stack-of-100-s-polish-zloty-banknotesft160_medium.jpg2016-10-07 15:17 163K 
[IMG]65492233-young-businessman-in-a-black-suitft160_medium.jpg2016-10-07 15:13 128K 
[IMG]65492235-touch-tablet-in-handsft160_medium.jpg2016-10-07 15:11 131K 
[IMG]65492236-young-businessman-in-a-black-suitft160_medium.jpg2016-10-07 15:14 128K 
[IMG]65492239-mother-and-daughter-drinking-teaft160_medium.jpg2016-10-07 15:17 162K 
[IMG]65492241-studio-della-pitturaft160_medium.jpg2016-10-07 15:13 152K 
[IMG]65492242-young-businessman-in-a-black-suitft160_medium.jpg2016-10-07 15:13 118K 
[IMG]65492244-young-businessman-in-a-black-suitft160_medium.jpg2016-10-07 15:16 125K 
[IMG]65492251-young-businessman-in-a-black-suitft160_medium.jpg2016-10-07 15:11 122K 
[IMG]65492254-green-plant-in-glass-flaskft160_medium.jpg2016-10-07 15:15 155K 
[IMG]65492256-green-plant-in-glass-flaskft160_medium.jpg2016-10-07 15:17 174K 
[IMG]65492264-young-businessman-in-a-black-suitft160_medium.jpg2016-10-07 15:15 118K 
[IMG]65492277-young-businessman-in-a-black-suitft160_medium.jpg2016-10-07 15:16 116K 
[IMG]65492279-young-woman-climbing-difficult-rock-ft160_medium.jpg2016-10-07 15:13 201K 
[IMG]65492282-foggy-mystic-forest-during-fallft160_medium.jpg2016-10-07 15:11 187K 
[IMG]65492286-foggy-mystic-forest-during-fallft160_medium.jpg2016-10-07 15:14 199K 
[IMG]65492287-young-businessman-in-a-black-suitft160_medium.jpg2016-10-07 15:13 120K 
[IMG]65492289-foggy-mystic-forest-during-fallft160_medium.jpg2016-10-07 15:17 192K 
[IMG]65492294-young-businessman-in-a-black-suitft160_medium.jpg2016-10-07 15:11 125K 
[IMG]65492300-foggy-mystic-forest-during-fallft160_medium.jpg2016-10-07 15:09 187K 
[IMG]65492302-touch-tablet-in-handsft160_medium.jpg2016-10-07 15:17 136K 
[IMG]65492303-green-field-and-blue-skyft160_medium.jpg2016-10-07 15:15 181K 
[IMG]65492305-young-businessman-in-a-black-suitft160_medium.jpg2016-10-07 15:11 122K 
[IMG]65492309-touch-tablet-in-handsft160_medium.jpg2016-10-07 15:13 139K 
[IMG]65492314-young-businessman-in-a-black-suitft160_medium.jpg2016-10-07 15:11 126K 
[IMG]65492319-touch-tablet-in-handsft160_medium.jpg2016-10-07 15:17 147K 
[IMG]65492323-lake-tropical-palms-and-boatft160_medium.jpg2016-10-07 15:10 204K 
[IMG]65492324-young-businessman-in-a-black-suitft160_medium.jpg2016-10-07 15:14 118K 
[IMG]65492327-golden-cooling-fanft160_medium.jpg2016-10-07 15:15 203K 
[IMG]65492332-cutlery-set-with-fork-knife-and-spoonft160_medium.jpg2016-10-07 15:09 146K 
[IMG]65492333-knitting-woolft160_medium.jpg2016-10-07 15:11 152K 
[IMG]65492337-young-businessman-in-a-black-suitft160_medium.jpg2016-10-07 15:13 120K 
[IMG]65492341-german-smileyft160_medium.jpg2016-10-07 15:17 157K 
[IMG]65492345-germany-smileft160_medium.jpg2016-10-07 15:17 139K 
[IMG]65492346-touch-tablet-in-handsft160_medium.jpg2016-10-07 15:17 134K 
[IMG]65492348-young-businessman-in-a-black-suitft160_medium.jpg2016-10-07 15:16 120K 
[IMG]65492353-duerre-auf-einem-ackerft160_medium.jpg2016-10-07 15:16 246K 
[IMG]65492357-mig-15ft160_medium.jpg2016-10-07 15:13 119K 
[IMG]65492358-world-cup-football-field-flagsft160_medium.jpg2016-10-07 15:13 209K 
[IMG]65492365-young-businessman-in-a-black-suitft160_medium.jpg2016-10-07 15:11 139K 
[IMG]65492371-tablet-social-networkft160_medium.jpg2016-10-07 15:15 147K 
[IMG]65492374-young-businessman-in-a-black-suitft160_medium.jpg2016-10-07 15:11 136K 
[IMG]65492375-tablet-social-networkft160_medium.jpg2016-10-07 15:13 131K 
[IMG]65492380-tablet-social-networkft160_medium.jpg2016-10-07 15:15 148K 
[IMG]65492382-dahlieft160_medium.jpg2016-10-07 15:15 202K 
[IMG]65492384-young-businessman-in-a-black-suitft160_medium.jpg2016-10-07 15:17 135K 
[IMG]65492387-you-want-the-best-coffee-you-came-to-the-right-placeft160_medium.jpg2016-10-07 15:14 149K 
[IMG]65492391-young-woman-climbing-difficult-rock-ft160_medium.jpg2016-10-07 15:10 204K 
[IMG]65492395-touch-tablet-in-handsft160_medium.jpg2016-10-07 15:13 151K 
[IMG]65492398ft160_medium.jpg2016-10-07 15:17 176K 
[IMG]65492401-young-businessman-in-a-black-suitft160_medium.jpg2016-10-07 15:12 120K 
[IMG]65492402-colorful-balls-of-woolft160_medium.jpg2016-10-07 15:11 147K 
[IMG]65492413-young-businessman-in-a-black-suitft160_medium.jpg2016-10-07 15:10 128K 
[IMG]65492415-soccer-ball-in-spotlightft160_medium.jpg2016-10-07 15:11 146K 
[IMG]65492416-boule-de-pain-cuite-au-four-traditionnelft160_medium.jpg2016-10-07 15:16 156K 
[IMG]65492419-skyscrapers-in-manhattan-new-york-cityft160_medium.jpg2016-10-07 15:15 153K 
[IMG]65492422-young-businessman-in-a-black-suitft160_medium.jpg2016-10-07 15:14 127K 
[IMG]65492427-football-field-sport-infographic-background-design-templateft160_medium.jpg2016-10-07 15:17 173K 
[IMG]65492435-dry-soil-in-hand-and-a-flask-with-waterft160_medium.jpg2016-10-07 15:14 147K 
[IMG]65492440-dry-soil-in-hand-and-a-flask-with-waterft160_medium.jpg2016-10-07 15:13 166K 
[IMG]65492443-zurichft160_medium.jpg2016-10-07 15:17 168K 
[IMG]65492445-dryness-arid-landft160_medium.jpg2016-10-07 15:17 215K 
[IMG]65492455-soccer-ball-with-bright-lens-flareft160_medium.jpg2016-10-07 15:15 147K 
[IMG]65492464-young-businessman-with-a-laptopft160_medium.jpg2016-10-07 15:12 136K 
[IMG]65492469-duerre-auf-einem-ackerft160_medium.jpg2016-10-07 15:17 252K 
[IMG]65492471-zurichft160_medium.jpg2016-10-07 15:13 170K 
[IMG]65492474-little-sketchy-man-at-destination-board-yes-or-noft160_medium.jpg2016-10-07 15:14 136K 
[IMG]65492492-perfectly-groomed-ski-pisteft160_medium.jpg2016-10-07 15:17 142K 
[IMG]65492501-zurichft160_medium.jpg2016-10-07 15:09 155K 
[IMG]65492502-receptorft160_medium.jpg2016-10-07 15:17 142K 
[IMG]65492503-west-highland-white-terrier-standingft160_medium.jpg2016-10-07 15:14 152K 
[IMG]65492505-young-woman-climbing-difficult-rock-in-forest-ft160_medium.jpg2016-10-07 15:15 203K 
[IMG]65492536-little-sketchy-man-with-stop-signft160_medium.jpg2016-10-07 15:12 138K 
[IMG]65492549-happy-little-girl-playing-with-water-hose-in-the-gardenft160_medium.jpg2016-10-07 15:16 162K 
[IMG]65492553-happy-little-girl-building-sand-castles-on-the-beachft160_medium.jpg2016-10-07 15:14 162K 
[IMG]65492555-happy-child-playing-with-water-in-plastic-bath-in-the-gardenft160_medium.jpg2016-10-07 15:12 212K 
[IMG]65492558-duerre-auf-einem-ackerft160_medium.jpg2016-10-07 15:12 248K 
[IMG]65492563-close-up-of-assorted-yarn-and-wooden-needlesft160_medium.jpg2016-10-07 15:16 160K 
[IMG]65492573-empty-exhibition-hall-with-empty-frame-and-concrete-floorft160_medium.jpg2016-10-07 15:13 122K 
[IMG]65492578-zurichft160_medium.jpg2016-10-07 15:10 170K 
[IMG]65492580-paper-ball-isolated-on-white-with-clipping-pathft160_medium.jpg2016-10-07 15:13 119K 
[IMG]65492582-cute-little-girl-playing-with-teddy-bear-on-the-streetft160_medium.jpg2016-10-07 15:11 204K 
[IMG]65492583-happy-little-child-sitting-in-the-car-holding-steering-wheelft160_medium.jpg2016-10-07 15:12 159K 
[IMG]65492584-cute-little-girl-playing-with-teddy-bear-on-the-streetft160_medium.jpg2016-10-07 15:12 224K 
[IMG]65492590-cute-little-girl-playing-with-teddy-bear-on-the-streetft160_medium.jpg2016-10-07 15:14 202K 
[IMG]65492591-zurichft160_medium.jpg2016-10-07 15:12 205K 
[IMG]65492594-red-3d-arrowft160_medium.jpg2016-10-07 15:11 136K 
[IMG]65492598-red-3d-arrowft160_medium.jpg2016-10-07 15:16 117K 
[IMG]65492608-zurichft160_medium.jpg2016-10-07 15:16 167K 
[IMG]65492615-landscape-girl-in-a-field-in-the-sunft160_medium.jpg2016-10-07 15:17 140K 
[IMG]65492618-zurichft160_medium.jpg2016-10-07 15:16 140K 
[IMG]65492620-ville-antique-de-pergameft160_medium.jpg2016-10-07 15:16 136K 
[IMG]65492629-boule-de-pain-cuite-au-four-traditionnelft160_medium.jpg2016-10-07 15:13 151K 
[IMG]65492646-brown-notebook-on-a-wood-backgroundft160_medium.jpg2016-10-07 15:12 140K 
[IMG]65492647-aqueductft160_medium.jpg2016-10-07 15:13 192K 
[IMG]65492660-groomft160_medium.jpg2016-10-07 15:10 131K 
[IMG]65492664-arches-national-parkft160_medium.jpg2016-10-07 15:13 152K 
[IMG]65492674-mesa-verdeft160_medium.jpg2016-10-07 15:15 163K 
[IMG]65492676-monument-valleyft160_medium.jpg2016-10-07 15:16 129K 
[IMG]65492679-vintage-texture-background-with-watch-time-rose-frameft160_medium.jpg2016-10-07 15:13 183K 
[IMG]65492680-bryce-canyonft160_medium.jpg2016-10-07 15:15 188K 
[IMG]65492686-bryce-canyonft160_medium.jpg2016-10-07 15:14 142K 
[IMG]65492689-ville-antique-de-pergameft160_medium.jpg2016-10-07 15:17 159K 
[IMG]65492691-grand-canyonft160_medium.jpg2016-10-07 15:13 176K 
[IMG]65492700-grand-canyonft160_medium.jpg2016-10-07 15:10 191K 
[IMG]65492701-grand-canyonft160_medium.jpg2016-10-07 15:17 169K 
[IMG]65492704-grand-canyonft160_medium.jpg2016-10-07 15:13 151K 
[IMG]65492708-grand-canyonft160_medium.jpg2016-10-07 15:17 162K 
[IMG]65492712-playing-babyft160_medium.jpg2016-10-07 15:14 175K 
[IMG]65492713-playing-babyft160_medium.jpg2016-10-07 15:12 165K 
[IMG]65492717-rice-field-and-river-ninhbinh-vietnam-landscapesft160_medium.jpg2016-10-07 15:13 170K 
[IMG]65492721-playing-babyft160_medium.jpg2016-10-07 15:13 138K 
[IMG]65492726-chartft160_medium.jpg2016-10-07 15:12 146K 
[IMG]65492727-cute-babyft160_medium.jpg2016-10-07 15:16 173K 
[IMG]65492735-open-red-boxft160_medium.jpg2016-10-07 15:14 124K 
[IMG]65492738-chartft160_medium.jpg2016-10-07 15:17 149K 
[IMG]65492741-romanesqueft160_medium.jpg2016-10-07 15:12 206K 
[IMG]65492751-pyreneesft160_medium.jpg2016-10-07 15:16 186K 
[IMG]65492752-creekft160_medium.jpg2016-10-07 15:15 200K 
[IMG]65492754-business-pyramidft160_medium.jpg2016-10-07 15:13 118K 
[IMG]65492755-new-yorkft160_medium.jpg2016-10-07 15:17 198K 
[IMG]65492757-new-yorkft160_medium.jpg2016-10-07 15:15 213K 
[IMG]65492762-new-yorkft160_medium.jpg2016-10-07 15:12 216K 
[IMG]65492763-pyreneesft160_medium.jpg2016-10-07 15:14 121K 
[IMG]65492768-pyreneesft160_medium.jpg2016-10-07 15:12 148K 
[IMG]65492777-swans-in-pragueft160_medium.jpg2016-10-07 15:11 143K 
[IMG]65492786-colorado-riverft160_medium.jpg2016-10-07 15:12 173K 
[IMG]65492787-zurichft160_medium.jpg2016-10-07 15:16 156K 
[IMG]65492788-bryce-canyonft160_medium.jpg2016-10-07 15:10 169K 
[IMG]65492793-vintage-typewriter-and-old-booksft160_medium.jpg2016-10-07 15:16 130K 
[IMG]65492795-fachwerkhaus-in-struempfelbachft160_medium.jpg2016-10-07 15:11 212K 
[IMG]65492796-desertft160_medium.jpg2016-10-07 15:17 135K 
[IMG]65492799-bryce-canyonft160_medium.jpg2016-10-07 15:14 188K 
[IMG]65492801-vintage-typewriter-and-old-booksft160_medium.jpg2016-10-07 15:11 151K 
[IMG]65492803-fisher-towerft160_medium.jpg2016-10-07 15:15 140K 
[IMG]65492817-dandelion-flowerft160_medium.jpg2016-10-07 15:17 199K 
[IMG]65492834-promenade-dans-les-rues-d-amsterdamft160_medium.jpg2016-10-07 15:15 207K 
[IMG]65492845-sergiev-posadft160_medium.jpg2016-10-07 15:15 146K 
[IMG]65492852-solar-energyft160_medium.jpg2016-10-07 15:12 139K 
[IMG]65492856-solar-energyft160_medium.jpg2016-10-07 15:13 152K 
[IMG]65492857-zurichft160_medium.jpg2016-10-07 15:16 140K 
[IMG]65492859-solar-energyft160_medium.jpg2016-10-07 15:13 162K 
[IMG]65492864-pink-daisiesft160_medium.jpg2016-10-07 15:13 183K 
[IMG]65492871-solar-energyft160_medium.jpg2016-10-07 15:13 149K 
[IMG]65492873-solar-energyft160_medium.jpg2016-10-07 15:15 132K 
[IMG]65492877-solar-energyft160_medium.jpg2016-10-07 15:11 163K 
[IMG]65492886-zurichft160_medium.jpg2016-10-07 15:10 157K 
[IMG]65492901-view-of-parish-church-mellieha-maltaft160_medium.jpg2016-10-07 15:17 163K 
[IMG]65492911-car-tire-tracks-on-sand-as-backgroundft160_medium.jpg2016-10-07 15:16 229K 
[IMG]65492912-golf-courseft160_medium.jpg2016-10-07 15:14 155K 
[IMG]65492916-golf-fieldft160_medium.jpg2016-10-07 15:14 161K 
[IMG]65492918-fachwerkhaus-in-struempfelbachft160_medium.jpg2016-10-07 15:15 173K 
[IMG]65492920-ordesa-national-parkft160_medium.jpg2016-10-07 15:16 185K 
[IMG]65492930-bunkerft160_medium.jpg2016-10-07 15:15 174K 
[IMG]65492933-bunkerft160_medium.jpg2016-10-07 15:16 171K 
[IMG]65492935-zurichft160_medium.jpg2016-10-07 15:14 185K 
[IMG]65492941-boules-de-pain-cuite-au-four-traditionnelft160_medium.jpg2016-10-07 15:15 160K 
[IMG]65492944-sunsetft160_medium.jpg2016-10-07 15:16 143K 
[IMG]65492946-sunsetft160_medium.jpg2016-10-07 15:10 141K 
[IMG]65492961-ville-antique-de-pergameft160_medium.jpg2016-10-07 15:13 144K 
[IMG]65492969-cibelesft160_medium.jpg2016-10-07 15:15 154K 
[IMG]65492975-bowl-of-gazpachoft160_medium.jpg2016-10-07 15:13 147K 
[IMG]65492980-bolsa-de-madridft160_medium.jpg2016-10-07 15:15 188K 
[IMG]65492981-pilarft160_medium.jpg2016-10-07 15:14 139K 
[IMG]65492986-pilarft160_medium.jpg2016-10-07 15:10 179K 
[IMG]65492987-attractive-girl-in-swimming-poolft160_medium.jpg2016-10-07 15:14 176K 
[IMG]65492989-pilarft160_medium.jpg2016-10-07 15:16 134K 
[IMG]65492993-pilarft160_medium.jpg2016-10-07 15:17 141K 
[IMG]65492996-plastic-building-blocks-isolated-on-white-backgroundft160_medium.jpg2016-10-07 15:11 132K 
[IMG]65493001-childhoodft160_medium.jpg2016-10-07 15:17 172K 
[IMG]65493013-manhole-on-the-street-in-seoul-south-koreaft160_medium.jpg2016-10-07 15:13 230K 
[IMG]65493015-high-speed-trainft160_medium.jpg2016-10-07 15:17 187K 
[IMG]65493016-yellow-rubber-duck-isolated-on-whiteft160_medium.jpg2016-10-07 15:14 120K 
[IMG]65493018-wind-energyft160_medium.jpg2016-10-07 15:12 116K 
[IMG]65493028-coffee-drink-in-a-glassft160_medium.jpg2016-10-07 15:11 166K 
[IMG]65493032-lotus-flower-and-lotus-flower-plantsft160_medium.jpg2016-10-07 15:17 172K 
[IMG]65493034-wind-energyft160_medium.jpg2016-10-07 15:15 166K 
[IMG]65493042-vieux-bati-zurichoisft160_medium.jpg2016-10-07 15:12 214K 
[IMG]65493045-caucasian-coupleft160_medium.jpg2016-10-07 15:15 138K 
[IMG]65493060-close-up-of-saving-account-passbookft160_medium.jpg2016-10-07 15:10 182K 
[IMG]65493065-beauty-careft160_medium.jpg2016-10-07 15:17 150K 
[IMG]65493079-vineyardft160_medium.jpg2016-10-07 15:17 201K 
[IMG]65493080-cleaning-faceft160_medium.jpg2016-10-07 15:11 134K 
[IMG]65493091-hand-care-and-protectionft160_medium.jpg2016-10-07 15:16 121K 
[IMG]65493093-wineft160_medium.jpg2016-10-07 15:12 179K 
[IMG]65493100-wineft160_medium.jpg2016-10-07 15:15 196K 
[IMG]65493104-wind-turbinesft160_medium.jpg2016-10-07 15:10 130K 
[IMG]65493105-lochesft160_medium.jpg2016-10-07 15:16 177K 
[IMG]65493108-notebookft160_medium.jpg2016-10-07 15:15 142K 
[IMG]65493116-hand-careft160_medium.jpg2016-10-07 15:11 126K 
[IMG]65493118-gardenft160_medium.jpg2016-10-07 15:12 227K 
[IMG]65493123-vintage-texture-background-with-watch-time-ft160_medium.jpg2016-10-07 15:15 184K 
[IMG]65493131-fussball-deutschlandft160_medium.jpg2016-10-07 15:14 137K 
[IMG]65493132-weathered-old-wall-backgroundft160_medium.jpg2016-10-07 15:13 167K 
[IMG]65493152-fresh-girlft160_medium.jpg2016-10-07 15:15 142K 
[IMG]65493154-applying-liquid-soapft160_medium.jpg2016-10-07 15:10 126K 
[IMG]65493155-disabled-man-on-wheelchairft160_medium.jpg2016-10-07 15:16 176K 
[IMG]65493164-beautiful-femaleft160_medium.jpg2016-10-07 15:14 134K 
[IMG]65493189-medieval-metal-knight-shield-with-crossed-swords-isolated-on-whift160_medium.jpg2016-10-07 15:15 165K 
[IMG]65493193-nine-frames-with-flowers-and-curls-on-a-white-backgroundft160_medium.jpg2016-10-07 15:13 164K 
[IMG]65493194-wheat-field-against-a-blue-skyft160_medium.jpg2016-10-07 15:16 183K 
[IMG]65493197-the-stylized-silhouette-of-a-dragonfly-on-a-light-backgroundft160_medium.jpg2016-10-07 15:17 122K 
[IMG]65493200-boules-de-pain-cuite-au-four-traditionnelft160_medium.jpg2016-10-07 15:14 171K 
[IMG]65493204-the-stylized-silhouette-of-a-dragonfly-on-a-light-backgroundft160_medium.jpg2016-10-07 15:12 127K 
[IMG]65493206-student-classft160_medium.jpg2016-10-07 15:17 197K 
[IMG]65493207-verkehrsflugzeug-im-steigflugft160_medium.jpg2016-10-07 15:13 180K 
[IMG]65493211-smile-of-femaleft160_medium.jpg2016-10-07 15:16 122K 
[IMG]65493217-bloisft160_medium.jpg2016-10-07 15:15 176K 
[IMG]65493220-bloisft160_medium.jpg2016-10-07 15:16 195K 
[IMG]65493221-lotus-flower-and-lotus-flower-plantsft160_medium.jpg2016-10-07 15:11 161K 
[IMG]65493228-three-red-sedans-in-a-rowft160_medium.jpg2016-10-07 15:16 181K 
[IMG]65493231-radiant-beautyft160_medium.jpg2016-10-07 15:12 136K 
[IMG]65493233-silhouette-of-the-woman-dancingft160_medium.jpg2016-10-07 15:12 114K 
[IMG]65493234-stopper2805aft160_medium.jpg2016-10-07 15:14 167K 
[IMG]65493238-drapeaux-europe-france-italie-enjeu-economiqueft160_medium.jpg2016-10-07 15:11 158K 
[IMG]65493243-cabine-de-plageft160_medium.jpg2016-10-07 15:17 163K 
[IMG]65493254-brushing-hairft160_medium.jpg2016-10-07 15:15 152K 
[IMG]65493259-background-of-blue-water-dropsft160_medium.jpg2016-10-07 15:11 139K 
[IMG]65493260-ice-black-coffeeft160_medium.jpg2016-10-07 15:16 167K 
[IMG]65493262-background-of-blue-water-dropsft160_medium.jpg2016-10-07 15:14 128K 
[IMG]65493263-eiffel-towerft160_medium.jpg2016-10-07 15:13 147K 
[IMG]65493264-background-of-blue-water-dropsft160_medium.jpg2016-10-07 15:14 220K 
[IMG]65493266-aquaplaningft160_medium.jpg2016-10-07 15:14 183K 
[IMG]65493268-pills-setft160_medium.jpg2016-10-07 15:17 145K 
[IMG]65493270-glass-of-milkft160_medium.jpg2016-10-07 15:13 112K 
[IMG]65493273-ice-black-coffeeft160_medium.jpg2016-10-07 15:16 148K 
[IMG]65493274-glass-of-milkft160_medium.jpg2016-10-07 15:11 120K 
[IMG]65493277-medical-icons-ft160_medium.jpg2016-10-07 15:12 150K 
[IMG]65493279-dry-chilly-on-white-backgroundft160_medium.jpg2016-10-07 15:17 186K 
[IMG]65493290-strassenschild-16-2018ft160_medium.jpg2016-10-07 15:14 182K 
[IMG]65493293-fresh-vegetable-salad-ft160_medium.jpg2016-10-07 15:16 162K 
[IMG]65493296-geburtstagft160_medium.jpg2016-10-07 15:12 195K 
[IMG]65493302-anzeigetafel-1-jobft160_medium.jpg2016-10-07 15:13 161K 
[IMG]65493303-fingers-familyft160_medium.jpg2016-10-07 15:11 133K 
[IMG]65493305-strassenschild-6-moeglichkeitenft160_medium.jpg2016-10-07 15:15 163K 
[IMG]65493307-looking-newborn-babyft160_medium.jpg2016-10-07 15:15 123K 
[IMG]65493311-police-carft160_medium.jpg2016-10-07 15:15 155K 
[IMG]65493312-water-drops-on-green-plant-leafft160_medium.jpg2016-10-07 15:18 213K 
[IMG]65493315-water-drops-on-green-plant-leafft160_medium.jpg2016-10-07 15:15 211K 
[IMG]65493318-shopping-cartft160_medium.jpg2016-10-07 15:17 172K 
[IMG]65493320-dry-chillyft160_medium.jpg2016-10-07 15:12 197K 
[IMG]65493322-water-drops-on-green-plant-leafft160_medium.jpg2016-10-07 15:16 221K 
[IMG]65493325-water-drops-on-green-plant-leafft160_medium.jpg2016-10-07 15:15 139K 
[IMG]65493326-water-drops-on-green-plant-leafft160_medium.jpg2016-10-07 15:15 225K 
[IMG]65493331-disabled-man-clearing-out-documentsft160_medium.jpg2016-10-07 15:15 187K 
[IMG]65493333-four-baklava-pieces-gourmet-conceptsft160_medium.jpg2016-10-07 15:13 161K 
[IMG]65493335-woman-reading-bookft160_medium.jpg2016-10-07 15:12 189K 
[IMG]65493346-vintage-texture-background-with-watch-time-frames-lace-roseft160_medium.jpg2016-10-07 15:13 202K 
[IMG]65493349-anzeigetafel-4-hoehepunktft160_medium.jpg2016-10-07 15:14 161K 
[IMG]65493353-verkehrsflugzeug-im-steigflugft160_medium.jpg2016-10-07 15:17 158K 
[IMG]65493355-tortilla-chips-close-up-on-white-backgroundft160_medium.jpg2016-10-07 15:13 160K 
[IMG]65493356-photo-of-the-sweet-homemade-truffleft160_medium.jpg2016-10-07 15:16 172K 
[IMG]65493358-taking-care-of-hairft160_medium.jpg2016-10-07 15:13 147K 
[IMG]65493359-strassenschild-8-militaerft160_medium.jpg2016-10-07 15:17 153K 
[IMG]65493361-water-drops-on-green-plant-leafft160_medium.jpg2016-10-07 15:10 162K 
[IMG]65493363-water-drops-on-green-plant-leafft160_medium.jpg2016-10-07 15:13 204K 
[IMG]65493364-tortilla-chipsft160_medium.jpg2016-10-07 15:10 157K 
[IMG]65493365-water-drops-on-green-plant-leafft160_medium.jpg2016-10-07 15:13 191K 
[IMG]65493370-water-drops-on-green-plant-leafft160_medium.jpg2016-10-07 15:12 183K 
[IMG]65493372-eiffel-towerft160_medium.jpg2016-10-07 15:14 173K 
[IMG]65493373-verkehrsflugzeug-im-steigflugft160_medium.jpg2016-10-07 15:14 117K 
[IMG]65493377-eiffel-towerft160_medium.jpg2016-10-07 15:15 160K 
[IMG]65493380-woman-enjoying-a-cocktailft160_medium.jpg2016-10-07 15:11 168K 
[IMG]65493382-strassenschild-4-agierenft160_medium.jpg2016-10-07 15:12 227K 
[IMG]65493383-refreshing-fruit-punchft160_medium.jpg2016-10-07 15:16 128K 
[IMG]65493390-cruise-ship-in-the-summer-timeft160_medium.jpg2016-10-07 15:16 159K 
[IMG]65493391-astonished-girlft160_medium.jpg2016-10-07 15:16 159K 
[IMG]65493395ft160_medium.jpg2016-10-07 15:11 140K 
[IMG]65493400-tropical-paradiseft160_medium.jpg2016-10-07 15:15 147K 
[IMG]65493401-man-on-wheelchair-during-everyday-taskft160_medium.jpg2016-10-07 15:12 165K 
[IMG]65493405-vintage-texture-background-with-watch-time-ft160_medium.jpg2016-10-07 15:13 180K 
[IMG]65493410-three-dimensional-shape-white-silver-sedan-studio-shotft160_medium.jpg2016-10-07 15:17 149K 
[IMG]65493412-verkehrsflugzeug-im-steigflugft160_medium.jpg2016-10-07 15:15 160K 
[IMG]65493413-winterft160_medium.jpg2016-10-07 15:14 177K 
[IMG]65493414-group-of-three-multicolored-elegant-carsft160_medium.jpg2016-10-07 15:15 135K 
[IMG]65493415-strassenschild-18-lebensfreudeft160_medium.jpg2016-10-07 15:16 170K 
[IMG]65493419-girl-with-powder-brushft160_medium.jpg2016-10-07 15:11 133K 
[IMG]65493421-using-hairbrushft160_medium.jpg2016-10-07 15:15 159K 
[IMG]65493433-verkehrsflugzeug-im-steigflugft160_medium.jpg2016-10-07 15:13 121K 
[IMG]65493436-set-of-3d-hatchback-carft160_medium.jpg2016-10-07 15:11 173K 
[IMG]65493441-applying-eyeshadowsft160_medium.jpg2016-10-07 15:15 148K 
[IMG]65493448-maquillageft160_medium.jpg2016-10-07 15:16 145K 
[IMG]65493451-attractive-girlft160_medium.jpg2016-10-07 15:16 130K 
[IMG]65493453-red-hot-chili-peppers-ft160_medium.jpg2016-10-07 15:15 161K 
[IMG]65493454ft160_medium.jpg2016-10-07 15:13 132K 
[IMG]65493457-black-mobile-phonesft160_medium.jpg2016-10-07 15:15 142K 
[IMG]65493460-large-group-of-studentft160_medium.jpg2016-10-07 15:16 186K 
[IMG]65493465-strassenschild-21-bayernft160_medium.jpg2016-10-07 15:17 191K 
[IMG]65493466-chania-creteft160_medium.jpg2016-10-07 15:12 176K 
[IMG]65493467-midi-d-ossauft160_medium.jpg2016-10-07 15:15 195K 
[IMG]65493470-connected-multi-ethnic-people-with-arms-raised-standing-on-worldft160_medium.jpg2016-10-07 15:14 142K 
[IMG]65493473-midi-d-ossauft160_medium.jpg2016-10-07 15:10 173K 
[IMG]65493482-funny-baby-white-rabbit-with-a-carrot-in-grassft160_medium.jpg2016-10-07 15:15 200K 
[IMG]65493485-tender-embraceft160_medium.jpg2016-10-07 15:17 207K 
[IMG]65493489-affectionate-loversft160_medium.jpg2016-10-07 15:16 173K 
[IMG]65493490-funny-baby-rabbit-in-grassft160_medium.jpg2016-10-07 15:16 194K 
[IMG]65493503-group-of-multi-ethnic-children-with-back-to-school-conceptft160_medium.jpg2016-10-07 15:12 184K 
[IMG]65493506-strassenschild-1-sattft160_medium.jpg2016-10-07 15:16 185K 
[IMG]65493507-vintage-texture-background-with-watch-time-ft160_medium.jpg2016-10-07 15:10 196K 
[IMG]65493508-snowft160_medium.jpg2016-10-07 15:17 170K 
[IMG]65493510-family-having-restft160_medium.jpg2016-10-07 15:12 175K 
[IMG]65493512-funny-baby-rabbit-in-grassft160_medium.jpg2016-10-07 15:17 186K 
[IMG]65493516-group-of-children-and-inspiration-conceptft160_medium.jpg2016-10-07 15:11 209K 
[IMG]65493517-fresh-mint-close-up-on-whiteft160_medium.jpg2016-10-07 15:13 132K 
[IMG]65493521-happinessft160_medium.jpg2016-10-07 15:15 163K 
[IMG]65493523-funny-baby-rabbit-in-grassft160_medium.jpg2016-10-07 15:14 184K 
[IMG]65493524-large-group-of-multiethnic-children-with-activitiesft160_medium.jpg2016-10-07 15:16 188K 
[IMG]65493526-midi-d-ossauft160_medium.jpg2016-10-07 15:14 145K 
[IMG]65493528-smiling-young-man-going-to-travelft160_medium.jpg2016-10-07 15:14 134K 
[IMG]65493529-baby-boy-want-to-get-somthing-in-frontft160_medium.jpg2016-10-07 15:13 137K 
[IMG]65493531-friendly-familyft160_medium.jpg2016-10-07 15:12 167K 
[IMG]65493534-funny-baby-rabbit-in-grassft160_medium.jpg2016-10-07 15:16 202K 
[IMG]65493535-family-with-laptopft160_medium.jpg2016-10-07 15:13 171K 
[IMG]65493539-young-businessman-isolated-on-whiteft160_medium.jpg2016-10-07 15:10 119K 
[IMG]65493541-fashion-man-in-leather-jacket-and-glassesft160_medium.jpg2016-10-07 15:15 140K 
[IMG]65493543-funny-baby-rabbit-in-grassft160_medium.jpg2016-10-07 15:17 181K 
[IMG]65493548-thoughtful-young-business-man-looking-upft160_medium.jpg2016-10-07 15:12 120K 
[IMG]65493555-funny-baby-rabbit-in-grassft160_medium.jpg2016-10-07 15:15 192K 
[IMG]65493558-smart-businessman-talking-in-his-mobile-phoneft160_medium.jpg2016-10-07 15:16 144K 
[IMG]65493559-disabled-man-during-cleaning-furnitureft160_medium.jpg2016-10-07 15:13 174K 
[IMG]65493560-baby-boy-cryingft160_medium.jpg2016-10-07 15:17 139K 
[IMG]65493565-funny-baby-rabbit-in-grassft160_medium.jpg2016-10-07 15:14 166K 
[IMG]65493570-group-of-children-circle-with-symbolft160_medium.jpg2016-10-07 15:10 208K 
[IMG]65493571-how-can-i-assist-you-today-ft160_medium.jpg2016-10-07 15:15 128K 
[IMG]65493572-confident-businesswoman-standingft160_medium.jpg2016-10-07 15:13 121K 
[IMG]65493574-young-woman-in-studio-looking-at-cameraft160_medium.jpg2016-10-07 15:17 133K 
[IMG]65493575-group-of-children-and-school-conceptft160_medium.jpg2016-10-07 15:13 204K 
[IMG]65493577-funny-baby-rabbit-in-grassft160_medium.jpg2016-10-07 15:14 194K 
[IMG]65493579-midi-d-ossauft160_medium.jpg2016-10-07 15:10 149K 
[IMG]65493580-young-beautiful-business-woman-posingft160_medium.jpg2016-10-07 15:14 141K 
[IMG]65493582-using-laptopft160_medium.jpg2016-10-07 15:15 164K 
[IMG]65493585-father-and-sonft160_medium.jpg2016-10-07 15:12 155K 
[IMG]65493586-disabled-man-with-crutchesft160_medium.jpg2016-10-07 15:10 176K 
[IMG]65493589-group-of-diverse-children-with-various-symbolft160_medium.jpg2016-10-07 15:13 200K 
[IMG]65493591-young-smiling-man-with-bowtieft160_medium.jpg2016-10-07 15:10 118K 
[IMG]65493592-multi-ethnic-children-with-world-conceptsft160_medium.jpg2016-10-07 15:14 176K 
[IMG]65493593-restaurant-cuisine-fait-maisonft160_medium.jpg2016-10-07 15:17 216K 
[IMG]65493596-funny-baby-rabbit-in-grassft160_medium.jpg2016-10-07 15:14 189K 
[IMG]65493597-gemeinde-q-ft160_medium.jpg2016-10-07 15:17 179K 
[IMG]65493598-business-woman-presenting-somethingft160_medium.jpg2016-10-07 15:15 126K 
[IMG]65493599-metallbild-vergilbte-baumtapeteft160_medium.jpg2016-10-07 15:17 196K 
[IMG]65493614-smiling-woman-showing-copy-space-for-productft160_medium.jpg2016-10-07 15:11 116K 
[IMG]65493617-family-of-fourft160_medium.jpg2016-10-07 15:13 157K 
[IMG]65493620-confident-young-casual-man-thinkingft160_medium.jpg2016-10-07 15:10 150K 
[IMG]65493623-woman-enjoying-a-cocktailft160_medium.jpg2016-10-07 15:14 168K 
[IMG]65493625-paper-shredder-and-bag-of-shredded-documentsfxs_full.jpg2016-10-07 15:12 588K 
[IMG]65493627-randonneeft160_medium.jpg2016-10-07 15:16 165K 
[IMG]65493628-disabled-man-on-crutchesft160_medium.jpg2016-10-07 15:14 187K 
[IMG]65493632-funny-baby-rabbit-on-a-stumpft160_medium.jpg2016-10-07 15:13 160K 
[IMG]65493633-randonneeft160_medium.jpg2016-10-07 15:17 140K 
[IMG]65493635-business-man-with-clasped-handsft160_medium.jpg2016-10-07 15:12 119K 
[IMG]65493636-little-boy-want-to-cryft160_medium.jpg2016-10-07 15:14 138K 
[IMG]65493639-strassenschild-2-antwortenft160_medium.jpg2016-10-07 15:15 136K 
[IMG]65493642-funny-baby-rabbit-in-grassft160_medium.jpg2016-10-07 15:14 163K 
[IMG]65493646-smiling-young-businessman-standingft160_medium.jpg2016-10-07 15:09 139K 
[IMG]65493648-baby-boy-stop-cryingft160_medium.jpg2016-10-07 15:12 132K 
[IMG]65493653-funny-baby-rabbit-in-grassft160_medium.jpg2016-10-07 15:15 177K 
[IMG]65493655-group-of-children-and-back-to-school-conceptft160_medium.jpg2016-10-07 15:12 231K 
[IMG]65493658-snowft160_medium.jpg2016-10-07 15:12 149K 
[IMG]65493659-smart-young-man-with-crossed-armsft160_medium.jpg2016-10-07 15:12 135K 
[IMG]65493660-preparation-of-meat-slices-in-sauce-on-fireft160_medium.jpg2016-10-07 15:11 226K 
[IMG]65493663-parentsft160_medium.jpg2016-10-07 15:16 131K 
[IMG]65493669-let-us-watch-tvft160_medium.jpg2016-10-07 15:13 177K 
[IMG]65493670-disabled-man-before-ironingft160_medium.jpg2016-10-07 15:17 173K 
[IMG]65493672-parapenteft160_medium.jpg2016-10-07 15:15 128K 
[IMG]65493683-green-leaves-backgroundft160_medium.jpg2016-10-07 15:14 165K 
[IMG]65493685-orange-hibiscus-flowersft160_medium.jpg2016-10-07 15:12 166K 
[IMG]65493686-group-of-children-with-learn-conceptft160_medium.jpg2016-10-07 15:12 187K 
[IMG]65493687-cheerful-young-executive-holding-credit-cardft160_medium.jpg2016-10-07 15:15 138K 
[IMG]65493689-diverse-cheerful-children-holding-lettersft160_medium.jpg2016-10-07 15:14 190K 
[IMG]65493690-handsome-young-man-with-earphonesft160_medium.jpg2016-10-07 15:13 122K 
[IMG]65493693-happy-man-pointing-at-somethingft160_medium.jpg2016-10-07 15:11 113K 
[IMG]65493695-family-at-homeft160_medium.jpg2016-10-07 15:16 182K 
[IMG]65493698-silence-gesture-shhhhh-ft160_medium.jpg2016-10-07 15:12 124K 
[IMG]65493699-beautiful-sunny-portrait-of-a-girl-face-laughing-girlft160_medium.jpg2016-10-07 15:17 181K 
[IMG]65493703-group-of-children-with-back-to-school-conceptft160_medium.jpg2016-10-07 15:12 194K 
[IMG]65493704-asian-baby-boy-cryingft160_medium.jpg2016-10-07 15:16 130K 
[IMG]65493708-young-athletic-man-flexing-his-musclesft160_medium.jpg2016-10-07 15:13 139K 
[IMG]65493711-large-group-of-people-holding-boardft160_medium.jpg2016-10-07 15:13 193K 
[IMG]65493712-cheerful-businessman-giving-his-credit-cardft160_medium.jpg2016-10-07 15:14 144K 
[IMG]65493713-cheerful-young-man-enjoying-musicft160_medium.jpg2016-10-07 15:17 134K 
[IMG]65493715-smiling-young-guy-over-white-backgroundft160_medium.jpg2016-10-07 15:16 125K 
[IMG]65493720-baby-boy-feeling-hungryft160_medium.jpg2016-10-07 15:10 129K 
[IMG]65493722-disabled-man-during-ironingft160_medium.jpg2016-10-07 15:14 181K 
[IMG]65493726-affectionate-familyft160_medium.jpg2016-10-07 15:15 211K 
[IMG]65493730-group-of-children-with-play-conceptft160_medium.jpg2016-10-07 15:16 195K 
[IMG]65493733-large-group-of-people-holding-board-with-video-gamesft160_medium.jpg2016-10-07 15:12 198K 
[IMG]65493744-wind-energyft160_medium.jpg2016-10-07 15:13 117K 
[IMG]65493748-baby-boy-feeling-surpriseft160_medium.jpg2016-10-07 15:15 132K 
[IMG]65493749-family-in-parkft160_medium.jpg2016-10-07 15:13 206K 
[IMG]65493755-grape-vine-shoot-with-budsft160_medium.jpg2016-10-07 15:12 187K 
[IMG]65493756-lying-on-grassft160_medium.jpg2016-10-07 15:14 198K 
[IMG]65493768-disabled-man-ironing-shirtft160_medium.jpg2016-10-07 15:16 163K 
[IMG]65493770-togethernessft160_medium.jpg2016-10-07 15:10 189K 
[IMG]65493773-resting-outdoorsft160_medium.jpg2016-10-07 15:12 199K 
[IMG]65493775-group-of-business-people-working-outdoorsft160_medium.jpg2016-10-07 15:14 138K 
[IMG]65493783-little-boyft160_medium.jpg2016-10-07 15:16 139K 
[IMG]65493786-fried-rice-with-shrimp-ft160_medium.jpg2016-10-07 15:12 182K 
[IMG]65493787ft160_medium.jpg2016-10-07 15:16 134K 
[IMG]65493791-business-people-standing-outdoors-celebrating-successft160_medium.jpg2016-10-07 15:15 138K 
[IMG]65493794-girl-in-cafeft160_medium.jpg2016-10-07 15:17 155K 
[IMG]65493797-happy-disabled-man-during-ironingft160_medium.jpg2016-10-07 15:12 173K 
[IMG]65493798-carefree-timeft160_medium.jpg2016-10-07 15:13 205K 
[IMG]65493805-global-business-americaft160_medium.jpg2016-10-07 15:13 190K 
[IMG]65493812-red-leaves-backgroundft160_medium.jpg2016-10-07 15:17 186K 
[IMG]65493816-good-time-in-cafeft160_medium.jpg2016-10-07 15:16 140K 
[IMG]65493820-modern-girlft160_medium.jpg2016-10-07 15:14 154K 
[IMG]65493823-pretty-girl-in-swimming-poolft160_medium.jpg2016-10-07 15:10 156K 
[IMG]65493824-bad-weather-drivingft160_medium.jpg2016-10-07 15:13 106K 
[IMG]65493828-yellow-flowers-with-flying-beeft160_medium.jpg2016-10-07 15:15 165K 
[IMG]65493831-disabled-man-sorting-towelsft160_medium.jpg2016-10-07 15:11 169K 
[IMG]65493840ft160_medium.jpg2016-10-07 15:14 195K 
[IMG]65493841-group-of-diverse-business-people-with-speech-bubblesft160_medium.jpg2016-10-07 15:13 144K 
[IMG]65493844-eating-dessertft160_medium.jpg2016-10-07 15:12 156K 
[IMG]65493845-free-timeft160_medium.jpg2016-10-07 15:17 159K 
[IMG]65493847-disabled-man-reading-a-bookft160_medium.jpg2016-10-07 15:13 138K 
[IMG]65493848-business-communicationsft160_medium.jpg2016-10-07 15:14 192K 
[IMG]65493853-communication-conceptft160_medium.jpg2016-10-07 15:12 203K 
[IMG]65493854ft160_medium.jpg2016-10-07 15:15 144K 
[IMG]65493865-being-at-homeft160_medium.jpg2016-10-07 15:15 176K 
[IMG]65493871-silhouettes-of-business-people-walking-inside-the-officeft160_medium.jpg2016-10-07 15:10 177K 
[IMG]65493878-segoviaft160_medium.jpg2016-10-07 15:13 191K 
[IMG]65493886-disabled-reading-a-bookft160_medium.jpg2016-10-07 15:13 174K 
[IMG]65493890-segoviaft160_medium.jpg2016-10-07 15:10 159K 
[IMG]65493892-lotus-flower-and-lotus-flower-plantsft160_medium.jpg2016-10-07 15:14 143K 
[IMG]65493899-funny-playft160_medium.jpg2016-10-07 15:13 153K 
[IMG]65493909-silhouettes-of-people-having-a-meeting-about-protectionft160_medium.jpg2016-10-07 15:17 248K 
[IMG]65493914-stained-glass-windowft160_medium.jpg2016-10-07 15:10 176K 
[IMG]65493918-group-of-corporate-people-discussing-about-global-communicationft160_medium.jpg2016-10-07 15:12 230K 
[IMG]65493920-ideas-of-drawingft160_medium.jpg2016-10-07 15:13 168K 
[IMG]65493922-happy-young-couple-relax-and-take-fresh-drinkft160_medium.jpg2016-10-07 15:14 141K 
[IMG]65493930-business-analyst-groupft160_medium.jpg2016-10-07 15:16 197K 
[IMG]65493931-sunburst-summer-holiday-ft160_medium.jpg2016-10-07 15:11 210K 
[IMG]65493933-mont-blancft160_medium.jpg2016-10-07 15:14 171K 
[IMG]65493936-happy-togetherft160_medium.jpg2016-10-07 15:15 173K 
[IMG]65493938-group-of-multiethnic-mixed-occupations-peopleft160_medium.jpg2016-10-07 15:11 184K 
[IMG]65493940-mont-blancft160_medium.jpg2016-10-07 15:12 162K 
[IMG]65493943-learner-at-lessonft160_medium.jpg2016-10-07 15:14 178K 
[IMG]65493952-group-of-multiethnic-diverse-mixed-occupation-peopleft160_medium.jpg2016-10-07 15:17 191K 
[IMG]65493954-multiethnic-group-of-business-people-with-digital-devicesft160_medium.jpg2016-10-07 15:10 189K 
[IMG]65493959-happy-friendsft160_medium.jpg2016-10-07 15:15 178K 
[IMG]65493964-pyreneesft160_medium.jpg2016-10-07 15:11 186K 
[IMG]65493969-group-of-people-with-various-conceptsft160_medium.jpg2016-10-07 15:14 194K 
[IMG]65493970-children-with-smartphoneft160_medium.jpg2016-10-07 15:14 179K 
[IMG]65493973-cheerful-ladsft160_medium.jpg2016-10-07 15:17 200K 
[IMG]65493981-multi-ethnic-group-of-people-with-technology-letterft160_medium.jpg2016-10-07 15:16 153K 
[IMG]65493983-portrait-of-multiethnic-diverse-colorful-peopleft160_medium.jpg2016-10-07 15:12 214K 
[IMG]65493985-cute-boyft160_medium.jpg2016-10-07 15:14 156K 
[IMG]65493986-disabled-during-free-timeft160_medium.jpg2016-10-07 15:17 169K 
[IMG]65493992-portrait-of-multiethnic-colorful-cheerful-peopleft160_medium.jpg2016-10-07 15:13 195K 
[IMG]65493993-girl-near-poolft160_medium.jpg2016-10-07 15:09 177K 
[IMG]65493994-communicating-boysft160_medium.jpg2016-10-07 15:16 177K 
[IMG]65493999-glad-boyft160_medium.jpg2016-10-07 15:15 156K 
[IMG]65494000-multi-ethnic-group-of-people-holding-alphabet-to-form-healthft160_medium.jpg2016-10-07 15:14 163K 
[IMG]65494001-sunflower-fieldft160_medium.jpg2016-10-07 15:14 215K 
[IMG]65494002-man-on-wheelchair-working-on-laptopft160_medium.jpg2016-10-07 15:10 163K 
[IMG]65494003-creekft160_medium.jpg2016-10-07 15:15 204K 
[IMG]65494005-boys-with-smartphoneft160_medium.jpg2016-10-07 15:14 165K 
[IMG]65494006-messaging-childrenft160_medium.jpg2016-10-07 15:10 175K 
[IMG]65494010-group-of-multi-ethnic-people-holding-letters-internet-and-relateft160_medium.jpg2016-10-07 15:15 204K 
[IMG]65494017-funny-boysft160_medium.jpg2016-10-07 15:13 182K 
[IMG]65494020-man-on-wheelchair-during-workft160_medium.jpg2016-10-07 15:13 177K 
[IMG]65494024-integrated-circuitft160_medium.jpg2016-10-07 15:15 208K 
[IMG]65494030-grafiti-frauft160_medium.jpg2016-10-07 15:15 187K 
[IMG]65494035-authors-sign-for-writing-education-libraries-book-clubs-ft160_medium.jpg2016-10-07 15:10 127K 
[IMG]65494039-little-girls-with-ice-cream-set-contourft160_medium.jpg2016-10-07 15:16 161K 
[IMG]65494040-creekft160_medium.jpg2016-10-07 15:15 196K 
[IMG]65494041-children-with-touchpadsft160_medium.jpg2016-10-07 15:13 188K 
[IMG]65494043-skyline-salzburg-rotft160_medium.jpg2016-10-07 15:11 129K 
[IMG]65494045-disabled-man-talking-on-phoneft160_medium.jpg2016-10-07 15:17 143K 
[IMG]65494046-pergeft160_medium.jpg2016-10-07 15:15 190K 
[IMG]65494047-happy-boysft160_medium.jpg2016-10-07 15:12 188K 
[IMG]65494048-skyline-salzburgft160_medium.jpg2016-10-07 15:14 120K 
[IMG]65494051-group-of-multi-ethnic-diverse-people-celebratingft160_medium.jpg2016-10-07 15:14 175K 
[IMG]65494054-pizza-loversft160_medium.jpg2016-10-07 15:14 191K 
[IMG]65494062-ausblick-im-sauerland-rothaarsteig-germanyft160_medium.jpg2016-10-07 15:12 173K 
[IMG]65494063-rear-view-of-shirtless-man-against-dual-colored-backgroundft160_medium.jpg2016-10-07 15:13 124K 
[IMG]65494067-facadeft160_medium.jpg2016-10-07 15:12 199K 
[IMG]65494071-coupleft160_medium.jpg2016-10-07 15:16 154K 
[IMG]65494074-being-togetherft160_medium.jpg2016-10-07 15:10 181K 
[IMG]65494079-stained-glass-windowft160_medium.jpg2016-10-07 15:13 172K 
[IMG]65494081-gladnessft160_medium.jpg2016-10-07 15:13 177K 
[IMG]65494086-affectionft160_medium.jpg2016-10-07 15:10 182K 
[IMG]65494092-group-of-multi-ethnic-arms-outstretched-and-holding-7-placards-fft160_medium.jpg2016-10-07 15:10 180K 
[IMG]65494093-10-discount-buttonft160_medium.jpg2016-10-07 15:16 152K 
[IMG]65494096-rear-view-of-shirtless-man-against-dual-colored-backgroundft160_medium.jpg2016-10-07 15:13 140K 
[IMG]65494098-diverse-group-of-peopleft160_medium.jpg2016-10-07 15:13 166K 
[IMG]65494099-modern-coupleft160_medium.jpg2016-10-07 15:12 171K 
[IMG]65494105-young-datesft160_medium.jpg2016-10-07 15:17 183K 
[IMG]65494109-wallft160_medium.jpg2016-10-07 15:15 171K 
[IMG]65494112-couple-with-cocktailsft160_medium.jpg2016-10-07 15:10 170K 
[IMG]65494114-people-with-social-media-communicationft160_medium.jpg2016-10-07 15:13 229K 
[IMG]65494115-young-woman-near-poolft160_medium.jpg2016-10-07 15:11 161K 
[IMG]65494116-flirtingft160_medium.jpg2016-10-07 15:15 164K 
[IMG]65494117-carefree-timeft160_medium.jpg2016-10-07 15:16 156K 
[IMG]65494124-multi-ethnic-group-of-peopleft160_medium.jpg2016-10-07 15:11 191K 
[IMG]65494125-calm-coupleft160_medium.jpg2016-10-07 15:14 165K 
[IMG]65494126-couple-in-cafeft160_medium.jpg2016-10-07 15:12 177K 
[IMG]65494129-hot-air-balloonft160_medium.jpg2016-10-07 15:13 125K 
[IMG]65494131-i-love-baking-sign-series-for-baking-food-and-cooking-ft160_medium.jpg2016-10-07 15:11 122K 
[IMG]65494132-anchor-nautical-symbolft160_medium.jpg2016-10-07 15:13 124K 
[IMG]65494135-young-shirtless-man-hiding-behind-cowboy-hatft160_medium.jpg2016-10-07 15:12 138K 
[IMG]65494142-disabled-reading-a-book-in-gardenft160_medium.jpg2016-10-07 15:11 193K 
[IMG]65494146-group-of-diverse-multiethnic-business-peopleft160_medium.jpg2016-10-07 15:17 145K 
[IMG]65494148-riding-bicyclesft160_medium.jpg2016-10-07 15:13 227K 
[IMG]65494162-red-curtain-old-backgroundft160_medium.jpg2016-10-07 15:14 143K 
[IMG]65494164-modern-abstract-geometric-green-backgroundft160_medium.jpg2016-10-07 15:13 153K 
[IMG]65494166-little-happy-girl-relaxing-in-hammockft160_medium.jpg2016-10-07 15:14 212K 
[IMG]65494169-fresh-mint-close-up-on-whiteft160_medium.jpg2016-10-07 15:12 123K 
[IMG]65494181-fern-leaf-backgroundft160_medium.jpg2016-10-07 15:12 191K 
[IMG]65494190-bobber-fishing-old-backgroundft160_medium.jpg2016-10-07 15:12 139K 
[IMG]65494192-disabled-man-on-crutches-in-gardenft160_medium.jpg2016-10-07 15:17 194K 
[IMG]65494194-people-playing-video-game-bad-habit-wasting-time-leisureft160_medium.jpg2016-10-07 15:16 176K 
[IMG]65494198-vector-filigree-pattern-on-greenft160_medium.jpg2016-10-07 15:13 220K 
[IMG]65494206-legs-of-bicyclistsft160_medium.jpg2016-10-07 15:13 228K 
[IMG]65494209-weekend-with-bicyclesft160_medium.jpg2016-10-07 15:12 231K 
[IMG]65494210-international-flagsft160_medium.jpg2016-10-07 15:17 204K 
[IMG]65494216-vintage-seamless-pattern-with-swirlsft160_medium.jpg2016-10-07 15:16 222K 
[IMG]65494219-hourglass-old-backgroundft160_medium.jpg2016-10-07 15:15 143K 
[IMG]65494220-pergeft160_medium.jpg2016-10-07 15:13 192K 
[IMG]65494221-rostockerinft160_medium.jpg2016-10-07 15:12 226K 
[IMG]65494223-lotus-flower-and-lotus-flower-plantsft160_medium.jpg2016-10-07 15:15 141K 
[IMG]65494225-disabled-working-in-a-gardenft160_medium.jpg2016-10-07 15:17 194K 
[IMG]65494226-red-lifebuoy-symbolft160_medium.jpg2016-10-07 15:13 136K 
[IMG]65494229-retro-microphone-iconft160_medium.jpg2016-10-07 15:16 108K 
[IMG]65494242-retro-scale-iconft160_medium.jpg2016-10-07 15:10 126K 
[IMG]65494244-retro-scale-old-backgroundft160_medium.jpg2016-10-07 15:13 154K 
[IMG]65494249-hands-upft160_medium.jpg2016-10-07 15:17 158K 
[IMG]65494256-joyful-bicyclistft160_medium.jpg2016-10-07 15:14 193K 
[IMG]65494261-i-love-beer-sign-series-for-alcohol-drinks-and-lager-ft160_medium.jpg2016-10-07 15:17 125K 
[IMG]65494264-dates-on-bicyclesft160_medium.jpg2016-10-07 15:15 211K 
[IMG]65494269-electrical-post-by-the-road-with-power-line-cables-against-blueft160_medium.jpg2016-10-07 15:17 162K 
[IMG]65494276-happy-girlfriendft160_medium.jpg2016-10-07 15:12 192K 
[IMG]65494278-refueling-a-motorcycle-at-a-gas-station-in-thailandft160_medium.jpg2016-10-07 15:16 174K 
[IMG]65494281-friendly-bicyclistsft160_medium.jpg2016-10-07 15:16 222K 
[IMG]65494298-trophy-cup-iconft160_medium.jpg2016-10-07 15:13 110K 
[IMG]65494308-clock-face-old-backgroundft160_medium.jpg2016-10-07 15:14 158K 
[IMG]65494317-recreationft160_medium.jpg2016-10-07 15:16 199K 
[IMG]65494324-happy-talkft160_medium.jpg2016-10-07 15:14 218K 
[IMG]65494326-the-way-forwardft160_medium.jpg2016-10-07 15:13 137K 
[IMG]65494330-group-of-business-people-holding-handft160_medium.jpg2016-10-07 15:15 149K 
[IMG]65494333-all-saints-churchft160_medium.jpg2016-10-07 15:12 182K 
[IMG]65494337-little-happy-girl-relaxing-in-hammockft160_medium.jpg2016-10-07 15:16 200K 
[IMG]65494348-idylft160_medium.jpg2016-10-07 15:13 214K 
[IMG]65494354-hot-air-balloon-old-backgroundft160_medium.jpg2016-10-07 15:17 152K 
[IMG]65494357-cup-of-coffee-espressoft160_medium.jpg2016-10-07 15:11 154K 
[IMG]65494359-white-loveft160_medium.jpg2016-10-07 15:13 215K 
[IMG]65494360-blogger-sign-for-internet-blogs-blogging-and-computers-ft160_medium.jpg2016-10-07 15:15 124K 
[IMG]65494361-businessman-standing-posture-hand-holding-blank-tabletft160_medium.jpg2016-10-07 15:17 114K 
[IMG]65494371-blick-auf-den-marmoladaft160_medium.jpg2016-10-07 15:16 151K 
[IMG]65494379-zeckengefahrft160_medium.jpg2016-10-07 15:16 174K 
[IMG]65494390-happy-group-of-kids-lying-on-the-floor-in-a-circleft160_medium.jpg2016-10-07 15:13 198K 
[IMG]65494392-romanceft160_medium.jpg2016-10-07 15:15 206K 
[IMG]65494395-rahmenft160_medium.jpg2016-10-07 15:12 173K 
[IMG]65494396-hiking-guy-at-the-desert-botanical-garden-phoenix-arizonaft160_medium.jpg2016-10-07 15:11 158K 
[IMG]65494402-hintergrund-vintageft160_medium.jpg2016-10-07 15:13 202K 
[IMG]65494403-businessman-standing-posture-hand-holding-blank-tabletft160_medium.jpg2016-10-07 15:16 129K 
[IMG]65494404-in-bloomft160_medium.jpg2016-10-07 15:16 193K 
[IMG]65494406-group-of-diverse-multiethnic-people-holding-handsft160_medium.jpg2016-10-07 15:16 205K 
[IMG]65494407-return-on-investment-per-cent-meterft160_medium.jpg2016-10-07 15:11 194K 
[IMG]65494412-planning-workft160_medium.jpg2016-10-07 15:11 148K 
[IMG]65494413-olgiate-olona-italy-the-old-wall-terrace-church-window-andft160_medium.jpg2016-10-07 15:14 173K 
[IMG]65494415-multi-ethnic-human-hand-pointing-text-researchft160_medium.jpg2016-10-07 15:13 164K 
[IMG]65494431-springtimeft160_medium.jpg2016-10-07 15:17 174K 
[IMG]65494435-businessman-hands-holding-tablet-isolatedft160_medium.jpg2016-10-07 15:11 121K 
[IMG]65494438-travel-sign-for-traveling-abroad-foreign-places-and-cultureft160_medium.jpg2016-10-07 15:11 126K 
[IMG]65494444-smiling-child-playing-game-adult-game-addict-teenage-problemft160_medium.jpg2016-10-07 15:17 175K 
[IMG]65494447-outlines-of-businesswomenft160_medium.jpg2016-10-07 15:17 151K 
[IMG]65494450-river-kubanft160_medium.jpg2016-10-07 15:14 153K 
[IMG]65494453-office-lifeft160_medium.jpg2016-10-07 15:16 164K 
[IMG]65494456-beautiful-red-hair-isolated-on-white-backgroundft160_medium.jpg2016-10-07 15:17 128K 
[IMG]65494457-projects-of-houses-on-the-backgroundft160_medium.jpg2016-10-07 15:16 187K 
[IMG]65494459-ground-squirrel-portrait-while-eating-paperft160_medium.jpg2016-10-07 15:11 161K 
[IMG]65494460-view-of-valletta-with-the-st-pauls-cathedral-malta-ft160_medium.jpg2016-10-07 15:11 150K 
[IMG]65494463-projects-of-houses-with-color-paletteft160_medium.jpg2016-10-07 15:15 176K 
[IMG]65494464-ground-squirrel-portrait-while-eating-paperft160_medium.jpg2016-10-07 15:11 151K 
[IMG]65494465-projects-of-houses-with-color-paletteft160_medium.jpg2016-10-07 15:15 136K 
[IMG]65494469-glass-water-clear-isolateft160_medium.jpg2016-10-07 15:13 117K 
[IMG]65494470-dolomiten-hoehenwegft160_medium.jpg2016-10-07 15:16 173K 
[IMG]65494475-the-color-palette-as-a-backgroundft160_medium.jpg2016-10-07 15:10 166K 
[IMG]65494477-discussing-dataft160_medium.jpg2016-10-07 15:13 155K 
[IMG]65494479-businessmen-at-workft160_medium.jpg2016-10-07 15:15 159K 
[IMG]65494481-daffodils-in-spring-gardenft160_medium.jpg2016-10-07 15:17 195K 
[IMG]65494483-cup-of-coffee-on-a-wooden-tableft160_medium.jpg2016-10-07 15:13 165K 
[IMG]65494484-flower-lilac-primrose-a-backgroundft160_medium.jpg2016-10-07 15:17 182K 
[IMG]65494488-saint-malo-fort-national-at-sunsetft160_medium.jpg2016-10-07 15:17 174K 
[IMG]65494494-old-photo-of-people-a-backgroundft160_medium.jpg2016-10-07 15:14 170K 
[IMG]65494496-plattkofelft160_medium.jpg2016-10-07 15:14 146K 
[IMG]65494497-silver-toaster-isolated-on-white-backgroundft160_medium.jpg2016-10-07 15:09 132K 
[IMG]65494498-green-grass-isolated-on-white-backgroundft160_medium.jpg2016-10-07 15:12 158K 
[IMG]65494499-businessman-with-energy-and-environmental-conceptft160_medium.jpg2016-10-07 15:15 200K 
[IMG]65494504-white-collar-workerft160_medium.jpg2016-10-07 15:13 161K 
[IMG]65494507-explaining-ideaft160_medium.jpg2016-10-07 15:12 160K 
[IMG]65494509-yellow-mimosa-on-wooden-boardsft160_medium.jpg2016-10-07 15:16 152K 
[IMG]65494516-the-sand-on-the-black-backgroundft160_medium.jpg2016-10-07 15:16 255K 
[IMG]65494525-the-sand-on-the-black-backgroundft160_medium.jpg2016-10-07 15:14 293K 
[IMG]65494529-pile-of-books-isolated-on-whiteft160_medium.jpg2016-10-07 15:15 141K 
[IMG]65494532-book-with-apple-isolated-on-whiteft160_medium.jpg2016-10-07 15:10 158K 
[IMG]65494533-man-with-a-notepaper-with-brand-conceptft160_medium.jpg2016-10-07 15:14 193K 
[IMG]65494536-spaghetti-with-mussels-in-bowlsft160_medium.jpg2016-10-07 15:13 197K 
[IMG]65494538-using-cellphoneft160_medium.jpg2016-10-07 15:17 158K 
[IMG]65494544-pasta-with-vegetables-and-saladft160_medium.jpg2016-10-07 15:14 218K 
[IMG]65494546-charity-sign-or-banner-for-advertising-business-and-charities-ft160_medium.jpg2016-10-07 15:17 121K 
[IMG]65494548-blick-auf-den-langkofelft160_medium.jpg2016-10-07 15:16 139K 
[IMG]65494551-nicoise-with-fresh-tuna-and-vegetablesft160_medium.jpg2016-10-07 15:15 141K 
[IMG]65494557-office-table-with-social-media-conceptft160_medium.jpg2016-10-07 15:13 188K 
[IMG]65494562-warm-salad-with-a-cutting-of-a-lambft160_medium.jpg2016-10-07 15:12 230K 
[IMG]65494567-set-of-cardiogram-iconsft160_medium.jpg2016-10-07 15:12 143K 
[IMG]65494574-wandern-im-groednertalft160_medium.jpg2016-10-07 15:12 156K 
[IMG]65494575-set-of-icons-for-health-care-pharmacy-and-laboratoryft160_medium.jpg2016-10-07 15:14 170K 
[IMG]65494577-group-of-business-people-discussing-business-issuesft160_medium.jpg2016-10-07 15:16 177K 
[IMG]65494592-beautiful-red-hair-isolated-on-white-backgroundft160_medium.jpg2016-10-07 15:16 116K 
[IMG]65494595-happy-womanft160_medium.jpg2016-10-07 15:11 142K 
[IMG]65494597-fresh-potato-close-up-isolated-on-white-backgroundft160_medium.jpg2016-10-07 15:11 138K 
[IMG]65494598-fresh-potato-close-up-isolated-on-white-backgroundft160_medium.jpg2016-10-07 15:14 124K 
[IMG]65494602-iced-coffee-on-wood-tableft160_medium.jpg2016-10-07 15:14 161K 
[IMG]65494603-businessman-with-plan-conceptft160_medium.jpg2016-10-07 15:16 192K 
[IMG]65494605-tablets-in-packing-isolated-on-whiteft160_medium.jpg2016-10-07 15:10 133K 
[IMG]65494609-tablets-close-up-a-medical-backgroundft160_medium.jpg2016-10-07 15:17 141K 
[IMG]65494610-tablets-in-packing-a-medical-backgroundft160_medium.jpg2016-10-07 15:11 202K 
[IMG]65494613-relaxed-femaleft160_medium.jpg2016-10-07 15:11 157K 
[IMG]65494616-tablets-and-pills-with-a-plantft160_medium.jpg2016-10-07 15:14 182K 
[IMG]65494620-chocolate-isolated-on-white-backgroundft160_medium.jpg2016-10-07 15:14 123K 
[IMG]65494623-wafers-isolated-on-white-backgroundft160_medium.jpg2016-10-07 15:11 147K 
[IMG]65494625-asian-gardener-during-workft160_medium.jpg2016-10-07 15:12 174K 
[IMG]65494627-vernazza-cinque-terre-italyft160_medium.jpg2016-10-07 15:15 178K 
[IMG]65494628-crespainaft160_medium.jpg2016-10-07 15:11 141K 
[IMG]65494638-bright-grapefruit-isolated-on-white-backgroundft160_medium.jpg2016-10-07 15:15 135K 
[IMG]65494643-open-and-closed-books-and-black-glasses-on-table-front-of-a-fullft160_medium.jpg2016-10-07 15:09 186K 
[IMG]65494646-bright-grapefruit-isolated-on-white-backgroundft160_medium.jpg2016-10-07 15:15 162K 
[IMG]65494649-assorted-cheese-with-honeyft160_medium.jpg2016-10-07 15:16 152K 
[IMG]65494650-the-old-rusty-iron-isolated-on-white-backgroundft160_medium.jpg2016-10-07 15:16 128K 
[IMG]65494654-hot-red-chili-or-chilli-pepper-isolated-ft160_medium.jpg2016-10-07 15:12 121K 
[IMG]65494655-rosesft160_medium.jpg2016-10-07 15:14 205K 
[IMG]65494656-working-asian-gardenerft160_medium.jpg2016-10-07 15:16 205K 
[IMG]65494657-vanilla-ice-cream-with-strawberriesft160_medium.jpg2016-10-07 15:16 161K 
[IMG]65494660-multiethnic-group-of-people-with-social-networkingft160_medium.jpg2016-10-07 15:17 185K 
[IMG]65494662-young-beautiful-girl-with-curly-long-hair-close-upft160_medium.jpg2016-10-07 15:11 138K 
[IMG]65494663-relaxationft160_medium.jpg2016-10-07 15:14 139K 
[IMG]65494664-group-of-people-and-3g-conceptft160_medium.jpg2016-10-07 15:14 181K 
[IMG]65494666-enjoymentft160_medium.jpg2016-10-07 15:14 148K 
[IMG]65494672-group-of-people-with-checked-markft160_medium.jpg2016-10-07 15:14 187K 
[IMG]65494676-classic-sign-for-style-perfection-the-iconic-and-the-clasft160_medium.jpg2016-10-07 15:16 124K 
[IMG]65494678-asian-gardener-having-fun-in-gardenft160_medium.jpg2016-10-07 15:13 202K 
[IMG]65494684-sea-bass-fillet-with-spring-vegetablesft160_medium.jpg2016-10-07 15:17 179K 
[IMG]65494685-taking-pleasureft160_medium.jpg2016-10-07 15:15 154K 
[IMG]65494699-in-spa-salonft160_medium.jpg2016-10-07 15:09 159K 
[IMG]65494704-asian-gardener-with-plantsft160_medium.jpg2016-10-07 15:13 204K 
[IMG]65494707-little-child-eating-strawberry-in-the-summerft160_medium.jpg2016-10-07 15:14 172K 
[IMG]65494721-young-mother-holding-her-baby-and-stinky-diaperft160_medium.jpg2016-10-07 15:14 134K 
[IMG]65494724-schlernft160_medium.jpg2016-10-07 15:14 177K 
[IMG]65494727-cropping-a-plant-in-a-gardenft160_medium.jpg2016-10-07 15:11 195K 
[IMG]65494728-set-of-icons-for-medicine-health-care-and-pharmacyft160_medium.jpg2016-10-07 15:12 157K 
[IMG]65494729-luxurious-procedureft160_medium.jpg2016-10-07 15:15 154K 
[IMG]65494734-man-little-girl-playing-video-game-gaming-habit-entertainmentft160_medium.jpg2016-10-07 15:17 174K 
[IMG]65494735-cake-from-shortcake-dough-with-strawberryft160_medium.jpg2016-10-07 15:16 165K 
[IMG]65494745-lego-plastic-building-blocks-on-whiteft160_medium.jpg2016-10-07 15:16 135K 
[IMG]65494758ft160_medium.jpg2016-10-07 15:12 171K 
[IMG]65494760-asian-gardener-cropping-a-plantft160_medium.jpg2016-10-07 15:13 204K 
[IMG]65494762-phra-that-doi-suthep-chiang-maift160_medium.jpg2016-10-07 15:14 182K 
[IMG]65494770-businessman-s-table-with-sales-conceptft160_medium.jpg2016-10-07 15:14 189K 
[IMG]65494776-clearing-skinft160_medium.jpg2016-10-07 15:11 167K 
[IMG]65494777-weinanbaugebiet-am-kaiserstuhl-im-schwarzwaldft160_medium.jpg2016-10-07 15:14 185K 
[IMG]65494783-discussing-projectft160_medium.jpg2016-10-07 15:16 162K 
[IMG]65494784-girls-starting-to-run-on-trackft160_medium.jpg2016-10-07 15:11 182K 
[IMG]65494787-gardener-with-a-spadeft160_medium.jpg2016-10-07 15:15 211K 
[IMG]65494788-crafts-as-a-sign-for-arts-and-crafts-fetes-and-showsft160_medium.jpg2016-10-07 15:10 125K 
[IMG]65494789-businessman-s-office-table-with-target-conceptft160_medium.jpg2016-10-07 15:15 196K 
[IMG]65494792-der-schlernft160_medium.jpg2016-10-07 15:12 175K 
[IMG]65494800-working-with-touchpadft160_medium.jpg2016-10-07 15:15 166K 
[IMG]65494807-asian-gardener-keeping-a-spadeft160_medium.jpg2016-10-07 15:10 198K 
[IMG]65494808-chocolate-cake-on-white-backgroundft160_medium.jpg2016-10-07 15:16 118K 
[IMG]65494809-burg-hohenzollernft160_medium.jpg2016-10-07 15:16 186K 
[IMG]65494816-shocked-woman-looking-at-document-with-scrutinyft160_medium.jpg2016-10-07 15:13 134K 
[IMG]65494825-business-conversationft160_medium.jpg2016-10-07 15:17 178K 
[IMG]65494830-business-meetingft160_medium.jpg2016-10-07 15:17 189K 
[IMG]65494831-asian-gardener-during-breakft160_medium.jpg2016-10-07 15:13 176K 
[IMG]65494834-business-couple-in-the-woodft160_medium.jpg2016-10-07 15:11 250K 
[IMG]65494842-lotus-flower-and-lotus-flower-plantsft160_medium.jpg2016-10-07 15:15 187K 
[IMG]65494844-business-document-and-penft160_medium.jpg2016-10-07 15:16 170K 
[IMG]65494852-young-man-hugging-his-girlfriendft160_medium.jpg2016-10-07 15:14 173K 
[IMG]65494855-business-relaxationft160_medium.jpg2016-10-07 15:17 249K 
[IMG]65494856-park-with-medieval-castle-in-volterra-tuscany-italyft160_medium.jpg2016-10-07 15:10 198K 
[IMG]65494858-canal-in-groningen-holland-ft160_medium.jpg2016-10-07 15:13 170K 
[IMG]65494860-explaining-dataft160_medium.jpg2016-10-07 15:13 157K 
[IMG]65494862-i-love-dance-sign-series-for-dancing-and-the-arts-ft160_medium.jpg2016-10-07 15:10 125K 
[IMG]65494866-working-with-electronic-documentft160_medium.jpg2016-10-07 15:15 166K 
[IMG]65494874-networking-togetherft160_medium.jpg2016-10-07 15:15 166K 
[IMG]65494875-business-discussionft160_medium.jpg2016-10-07 15:17 184K 
[IMG]65494877-gardener-cropping-treeft160_medium.jpg2016-10-07 15:14 208K 
[IMG]65494883-applauseft160_medium.jpg2016-10-07 15:16 183K 
[IMG]65494884-sensual-woman-portrait-laying-on-table-with-black-underwear-fulft160_medium.jpg2016-10-07 15:17 118K 
[IMG]65494888-wooden-sign-hanging-from-ropeft160_medium.jpg2016-10-07 15:16 137K 
[IMG]65494892-old-grunge-paper-textureft160_medium.jpg2016-10-07 15:14 144K 
[IMG]65494893-at-conferenceft160_medium.jpg2016-10-07 15:15 186K 
[IMG]65494894-asian-gardener-cropping-branchft160_medium.jpg2016-10-07 15:10 174K 
[IMG]65494903ft160_medium.jpg2016-10-07 15:14 135K 
[IMG]65494905-colorful-french-macaroonsft160_medium.jpg2016-10-07 15:14 133K 
[IMG]65494909-family-running-on-the-beachft160_medium.jpg2016-10-07 15:15 162K 
[IMG]65494910-business-conversationft160_medium.jpg2016-10-07 15:12 140K 
[IMG]65494914-gardener-lifting-a-stoneft160_medium.jpg2016-10-07 15:15 194K 
[IMG]65494916-young-guy-little-girl-playing-video-game-habit-game-addictionft160_medium.jpg2016-10-07 15:10 169K 
[IMG]65494918-confident-black-man-close-up-portrait-with-sunglasses-against-daft160_medium.jpg2016-10-07 15:12 144K 
[IMG]65494930-soccerft160_medium.jpg2016-10-07 15:14 135K 
[IMG]65494933-gardener-spraying-a-plantft160_medium.jpg2016-10-07 15:13 212K 
[IMG]65494940ft160_medium.jpg2016-10-07 15:12 139K 
[IMG]65494942-furious-woman-holding-an-iron-and-a-laptopft160_medium.jpg2016-10-07 15:12 133K 
[IMG]65494946-events-sign-for-business-clubs-public-gatherings-and-social-ocft160_medium.jpg2016-10-07 15:13 128K 
[IMG]65494954-cinema-clap-on-hologramft160_medium.jpg2016-10-07 15:16 191K 
[IMG]65494955-pergeft160_medium.jpg2016-10-07 15:17 193K 
[IMG]65494957-asian-gardener-planting-flowersft160_medium.jpg2016-10-07 15:16 221K 
[IMG]65494961-retro-microphone-on-hologramft160_medium.jpg2016-10-07 15:13 164K 
[IMG]65494965-black-nerd-glasses-isolated-on-whiteft160_medium.jpg2016-10-07 15:15 123K 
[IMG]65494970-sperm-and-egg-cell-on-hologramft160_medium.jpg2016-10-07 15:14 164K 
[IMG]65494973-bavarian-traditionft160_medium.jpg2016-10-07 15:15 171K 
[IMG]65494974-laughing-black-man-close-up-portrait-with-sunglasses-against-darft160_medium.jpg2016-10-07 15:15 112K 
[IMG]65494977-planting-flowers-in-a-gardenft160_medium.jpg2016-10-07 15:12 207K 
[IMG]65494981ft160_medium.jpg2016-10-07 15:13 158K 
[IMG]65494982-young-man-holding-a-newspaperft160_medium.jpg2016-10-07 15:15 127K 
[IMG]65494984-guy-brother-plays-computer-game-chats-little-sister-addictionft160_medium.jpg2016-10-07 15:14 147K 
[IMG]65494989-asian-gardener-presenting-beautiful-gardenft160_medium.jpg2016-10-07 15:15 213K 
[IMG]65494994-portrait-of-smiling-young-black-man-shirtless-with-basket-ball-aft160_medium.jpg2016-10-07 15:13 136K 
[IMG]65494996ft160_medium.jpg2016-10-07 15:12 155K 

Apache/2.4.12 (Ubuntu) Server at pics.mein-artikel-design.de Port 443